Showing default

FLOCK 4H 33, 66736

Orbit data source: Space-Track

FLOCK 4H 33, 66736 is a payload satellite owned by Planet (US) in SSO that was launched on Fri, 28 Nov 2025 UTC via an FALCON 9 launch vehicle from the Air Force Western Test Range (AFWTR). Payload-class satellites include a variety of spacecraft equipped with specific instruments for various scientific and technological missions. These include communications satellites like Starlink; space stations such as the ISS; scientific satellites like the Hubble; Earth observation satellites from companies like Planet Labs, Umbra, and HawkEye 360; GPS; miniature CubeSats for education and research; and military/defense satellites.

Loading next visibility...
Identifier
66736, 2025-276BY
Orbit
SSO
Country
Flag of USUS
Related business
Manufacturer
Planet
Mission
Operational Commercial Imaging
Bus & Motor
CUBESAT 3U, Unknown motor
Mass
5.7 kg wet, 5.7 kg dry
Launch date (UTC)
2025-11-28 (9 months ago)
Launch vehicle
FALCON 9
Launch site
Air Force Western Test Range (AFWTR)
Object type
Payload
Rocket body
Debris
Shape & HBR
Box + 2 Pan, 1.0 m
Radar Cross Section
0.072 m², Medium (>0.1 m² and < 1m²)

Expand to show TLE details & history
Last TLE update: 10 hours ago

TLE from 10 hours ago
0 FLOCK 4H 33
1 66736U 25276BY  26238.45519220  .00005622  00000-0  25203-3 0  9999
2 66736  97.4181 311.3341 0003620  72.0310 288.1320 15.21615704 41124
Epoch: 2026-08-26T10:55Z
TLE epoch observation values (Epoch: 2026-08-26T10:55:28.606Z)
Latitude
-0.00003°
Longitude
172.75697°
Altitude
503.284 km
Speed
7.613 km/s
True Right ascension
20h 45m 20s
True Declination
0° 00' 00"
Sunlit
Object was in full shadow at epoch
Visualization orbit readout
Latitude
Unknown
Longitude
Unknown
Altitude
Unknown
Speed
Unknown
Apparent Right ascension
Unknown
Apparent Declination
Unknown
Sunlit
N/A
Visualization observer readout
Local Sidereal Time
11:46:04
Azimuth
Unknown
Elevation
Unknown
Doppler factor
Unknown
Orbital elements
Apogee altitude
500.42 km
Perigee altitude
495.442 km
Semi-major axis
6,876.068 km
Eccentricity
0.00036
Inclination
97.4181°
RAAN
311.3341°
Arg. of periapsis
72.031°
True anomaly
288.09257°
Mean anomaly
288.132°
Eccentric anomaly
288.11229°
Mean motion
3.80656 °/min
Orbital period
94.57 mins
BSTAR
0.00025203
Loading maneuver chart data...
Computing Atmospheric mass density...
Loading historical data...
Loading historical data...
Loading historical data...
Loading historical data...
Loading historical data...
Loading historical data...
Loading historical data...

Documentation

Showing up to 5 results
|